Weather History for McComb, MS

Change the Weather History Date:

Sunday, October 7, 2012

  Actual Average Record
Temperature  
Mean Temperature 56 °F -  
Max Temperature 63 °F 79 °F 91 °F (1990)
Min Temperature 51 °F 55 °F 40 °F (1964)
Degree Days  
Heating Degree Days 10    
Growing Degree Days 6 (Base 50)    
Moisture  
Dew Point 50 °F    
Average Humidity 84    
Maximum Humidity 97    
Minimum Humidity 67    
Precipitation  
Precipitation 0.00 in - - ()
Sea Level Pressure  
Sea Level Pressure 30.11 in    
Wind  
Wind Speed 9 mph (North)    
Max Wind Speed 14 mph    
Max Gust Speed 18 mph    
Visibility 10 miles    
Events      
Averages and records for this station are not official NWS values.
T = Trace of Precipitation, MM = Missing Value Source: NWS Daily Summary

Daily Weather History Graph

Daily Weather History Graph

Search for Another Location

Airport:

Trip Planner

Search our weather history database for the weather conditions in past years. The results will help you decide how hot, cold, wet, or windy it might be!

Date:

Astronomy

Oct. 07, 2012 Rise Set
Actual Time 6:59 AM CDT 6:38 PM CDT
Civil Twilight 6:35 AM CDT 7:03 PM CDT
Nautical Twilight 6:07 AM CDT 7:31 PM CDT
Astronomical Twilight 5:39 AM CDT 7:59 PM CDT
Moon No Moon Rise 1:21 PM CDT (10/7)
Length of Visible Light 12h 27m
Length of Day
11h 39m
Waning Gibbous, 56% of the Moon is Illuminated
Oct 7
Waning Gibbous
Oct 8
Last Quarter
Oct 15
New
Oct 21
First Quarter
Oct 29
Full

Hourly Weather History & Observations

Time (CDT) Temp. Dew Point Humidity Pressure Visibility Wind Dir Wind Speed Gust Speed Precip Events Conditions
12:53 AM 55.0 °F 53.1 °F 93% 30.07 in 10.0 mi North 10.4 mph - N/A   Overcast
1:53 AM 55.0 °F 53.1 °F 93% 30.08 in 10.0 mi North 6.9 mph - N/A   Overcast
2:53 AM 55.0 °F 53.1 °F 93% 30.09 in 9.0 mi North 5.8 mph - N/A   Overcast
3:53 AM 54.0 °F 52.0 °F 93% 30.09 in 9.0 mi NNW 11.5 mph - N/A   Overcast
4:21 AM 53.6 °F 51.8 °F 94% 30.09 in 8.0 mi North 8.1 mph - N/A   Overcast
4:53 AM 52.0 °F 51.1 °F 97% 30.09 in 4.0 mi NNW 10.4 mph - N/A   Overcast
5:53 AM 52.0 °F 51.1 °F 97% 30.11 in 9.0 mi North 8.1 mph - N/A   Overcast
6:25 AM 51.8 °F 50.0 °F 94% 30.12 in 10.0 mi North 10.4 mph - N/A   Overcast
6:53 AM 52.0 °F 50.0 °F 93% 30.12 in 10.0 mi North 9.2 mph - N/A   Overcast
7:53 AM 52.0 °F 48.9 °F 89% 30.14 in 10.0 mi North 8.1 mph - N/A   Overcast
8:53 AM 52.0 °F 48.9 °F 89% 30.15 in 10.0 mi North 8.1 mph - N/A   Overcast
9:53 AM 53.1 °F 48.9 °F 86% 30.16 in 10.0 mi North 9.2 mph - N/A   Overcast
10:53 AM 54.0 °F 48.9 °F 83% 30.17 in 10.0 mi North 9.2 mph - N/A   Overcast
11:53 AM 54.0 °F 48.0 °F 80% 30.16 in 10.0 mi North 10.4 mph 18.4 mph N/A   Overcast
12:53 PM 55.9 °F 48.9 °F 77% 30.15 in 10.0 mi North 10.4 mph - N/A   Overcast
1:53 PM 57.0 °F 48.9 °F 74% 30.13 in 10.0 mi North 13.8 mph - N/A   Overcast
2:53 PM 60.1 °F 50.0 °F 69% 30.10 in 10.0 mi North 11.5 mph - N/A   Overcast
3:53 PM 60.1 °F 50.0 °F 69% 30.08 in 10.0 mi North 12.7 mph - N/A   Scattered Clouds
4:15 PM 60.8 °F 50.0 °F 68% 30.09 in 10.0 mi North 9.2 mph - N/A   Mostly Cloudy
4:53 PM 60.1 °F 48.9 °F 67% 30.09 in 10.0 mi North 9.2 mph - N/A   Mostly Cloudy
5:53 PM 57.9 °F 48.9 °F 72% 30.09 in 10.0 mi North 9.2 mph - N/A   Overcast
6:43 PM 55.4 °F 48.2 °F 77% 30.11 in 10.0 mi NNE 5.8 mph - N/A   Scattered Clouds
6:53 PM 55.9 °F 48.9 °F 77% 30.11 in 10.0 mi North 4.6 mph - N/A   Clear
7:53 PM 54.0 °F 50.0 °F 86% 30.11 in 10.0 mi Calm Calm - N/A   Clear
8:53 PM 53.1 °F 50.0 °F 89% 30.12 in 10.0 mi Calm Calm - N/A   Clear
9:53 PM 53.1 °F 48.9 °F 86% 30.13 in 10.0 mi North 6.9 mph - N/A   Clear
10:53 PM 52.0 °F 46.9 °F 83% 30.14 in 10.0 mi North 6.9 mph - N/A   Clear
11:53 PM 51.1 °F 46.0 °F 83% 30.13 in 10.0 mi Variable 3.5 mph - N/A   Clear